EHI
0 0 0 0 0 0 0 0 0 0 0 0 0 0 0 0 0 0 0 0 0 0 0 0 0 1 2 2 2 2 2 1 0 0 0 0 0 0 0 0 0 0 0
0 0 0 0 0 0 0 0 0 0 0 0 0 0 0 0 0 0 0 0 0 0 0 0 0 0 1 2 2 1 1 0 0 0 0 0 0 0 0 0 0 0 0
0 0 0 0 0 0 0 0 0 0 0 0 0 0 0 0 0 0 0 0 0 0 0 0 0 0 0 1 1 0 0 0 0 0 0 0 0 0 0 0 0 0 0
0 0 0 0 0 0 0 0 0 0 0 0 0 0 0 0 0 0 0 0 0 0 0 0 0 0 0 0 0 0 0 0 0 0 0 0 0 0 0 0 0 0 0
0 0 0 0 0 1 1 1 0 0 0 0 0 0 0 0 0 0 0 0 0 0 0 0 0 0 0 0 0 0 0 0 0 0 0 0 0 0 0 0 0 0 0
0 1 1 1 4 8 9 5 2 0 0 0 0 0 0 0 0 0 0 0 0 0 0 0 0 0 0 0 0 0 0 0 0 0 0 0 0 0 0 0 0 0 0
1 3 4 5 14 28 28 15 7 2 0 0 0 0 0 0 0 0 0 0 0 0 0 0 0 0 0 0 0 0 0 0 0 0 0 0 0 0 0 0 0 0 0
3 5 8 12 27 45 44 26 12 3 0 0 0 0 0 0 0 0 0 0 0 0 0 0 0 0 0 0 0 0 0 0 0 0 0 0 0 0 0 0 0 0 0
5 7 11 17 31 43 39 24 10 3 0 0 0 0 0 0 0 0 0 0 0 0 0 0 0 0 0 0 0 0 0 0 0 0 0 0 0 0 0 0 0 0 0
10 12 14 17 23 27 24 13 5 1 0 0 0 0 0 0 0 0 0 0 0 0 0 0 0 0 0 0 0 0 0 0 0 0 0 0 0 0 0 0 0 0 0
13 16 17 15 14 15 13 7 2 1 0 0 0 0 0 0 0 0 0 0 0 0 0 0 0 0 0 0 0 0 0 0 0 0 0 0 0 0 0 0 0 0 0
12 14 14 12 10 8 6 3 1 1 0 0 0 0 0 0 0 0 0 0 0 0 0 0 0 0 0 0 0 0 0 0 0 0 0 0 0 0 0 0 0 0 0
8 7 7 8 7 5 3 1 1 0 0 0 0 0 0 0 0 0 0 0 0 0 0 0 0 0 0 0 0 0 0 0 0 0 0 0 0 0 0 0 0 0 0
4 2 2 3 3 3 2 2 1 0 0 0 0 0 0 0 0 0 0 0 0 0 0 0 0 0 0 0 0 0 0 0 0 0 0 0 0 0 0 0 0 0 0
1 0 0 0 1 2 2 1 1 0 0 0 0 0 0 0 0 0 0 0 0 0 0 0 0 0 0 0 0 0 0 0 0 0 0 0 0 0 0 0 0 0 0
0 0 0 0 1 1 0 0 0 0 0 0 0 0 0 0 0 0 0 0 0 0 0 0 0 0 0 0 0 0 0 0 0 0 0 0 0 0 0 0 0 0 0
0 0 0 0 0 0 0 0 0 0 0 0 0 0 0 0 0 0 0 0 0 0 0 0 0 0 0 0 0 0 0 0 0 0 0 0 0 0 0 0 0 0 0
1 0 0 0 0 0 0 0 0 0 0 0 0 0 0 0 0 0 0 0 0 0 0 0 0 0 0 0 0 0 0 0 0 0 0 0 0 0 0 0 0 0 0
3 1 0 0 0 0 0 0 0 0 0 0 0 0 0 0 0 0 0 0 0 0 0 0 0 0 0 0 0 0 0 0 0 0 0 0 0 0 0 0 0 0 0
2 1 0 0 0 0 0 0 0 0 0 0 0 0 0 0 0 0 0 0 0 0 0 0 0 0 0 0 0 0 0 0 0 0 0 0 0 0 0 0 0 0 0
1 1 1 0 0 0 0 0 0 0 0 0 0 0 0 0 0 0 0 0 0 0 0 0 0 0 0 0 0 0 0 0 0 0 0 0 0 0 0 0 0 0 0
3 2 1 1 0 0 0 0 0 0 0 0 0 0 0 0 0 0 0 0 0 0 0 0 0 0 0 0 0 0 0 0 0 0 0 0 0 0 0 0 0 0 0
10 6 3 2 0 0 0 0 0 0 0 0 0 0 0 0 0 0 0 0 0 0 0 0 0 0 0 0 0 0 0 0 0 0 0 0 0 0 0 0 0 0 0
14 9 3 1 0 0 0 0 0 0 0 0 0 0 0 0 0 0 0 0 0 0 0 0 0 0 0 0 0 0 0 0 0 0 0 0 0 0 0 0 0 0 0
11 9 4 1 0 0 0 0 0 0 0 0 0 0 0 0 0 0 0 0 0 0 0 0 0 0 0 0 0 0 0 0 0 0 0 0 0 0 0 0 0 0 0
7 8 6 2 1 0 0 0 0 0 0 0 0 0 0 0 0 0 0 0 0 0 0 0 0 0 0 0 0 0 0 0 0 0 0 0 0 0 0 0 0 0 0
Wind_Speed
5 5 4 4 5 4 3 3 1 2 4 5 5 6 7 7 7 6 4 11 11 11 11 11 12 12 11 11 9 8 6 5 4 4 4 4 4 5 5 5 5 6 7
4 5 4 4 3 4 4 2 3 2 3 4 5 4 5 6 7 6 5 8 14 13 12 12 13 13 12 12 11 10 8 7 6 4 4 4 3 4 4 4 5 6 7
5 5 4 4 3 4 4 2 3 3 4 3 4 5 4 4 7 7 6 5 7 12 14 15 15 14 14 13 11 10 9 8 7 6 5 4 3 3 3 4 4 5 6
5 5 4 4 4 4 3 3 3 2 3 3 3 3 3 1 4 6 6 5 5 6 9 14 14 14 14 13 12 10 9 8 8 7 6 4 3 2 3 3 4 4 5
6 5 4 4 5 3 3 4 3 2 3 3 3 2 2 2 1 2 5 6 5 6 4 7 12 12 12 12 12 11 10 9 8 7 7 5 4 3 2 2 3 3 4
5 4 4 4 5 4 3 3 4 2 3 3 3 3 2 1 3 4 3 4 4 6 6 6 5 7 12 12 12 12 10 9 9 8 8 7 6 4 2 2 2 2 3
3 3 4 4 3 5 5 4 3 3 2 2 3 2 0 0 4 1 1 3 4 4 4 4 4 4 5 11 11 12 12 11 11 10 10 8 7 5 3 2 1 2 2
4 3 5 3 3 4 5 4 4 2 2 2 3 3 1 0 1 2 2 2 4 2 4 6 4 4 5 4 7 12 12 12 12 12 12 11 9 6 4 3 1 1 2
6 5 5 5 4 4 4 4 4 4 2 2 2 4 3 3 2 2 4 2 3 2 0 2 4 5 7 5 4 8 10 11 11 12 12 12 11 9 6 4 3 2 2
6 6 5 5 5 4 5 5 5 4 4 4 4 4 4 4 4 2 2 3 5 4 3 1 2 4 7 5 6 7 9 9 11 11 11 12 12 11 10 8 6 4 3
6 6 6 6 6 5 6 6 6 6 5 5 5 5 3 2 3 4 3 3 2 3 4 4 3 3 5 6 5 6 8 8 10 10 11 11 12 12 12 11 9 8 6
4 6 7 6 7 6 7 7 7 8 7 7 6 6 4 3 2 2 3 4 4 4 4 3 4 3 4 5 7 8 7 7 8 9 9 10 11 12 12 11 11 10 9
3 4 5 6 6 7 7 7 7 8 9 9 8 6 4 3 3 2 3 3 4 3 4 3 3 4 4 5 5 10 7 7 7 7 8 9 9 10 11 11 11 10 10
3 3 4 4 5 6 6 7 6 7 7 8 9 8 5 4 3 2 2 3 3 2 2 4 4 5 4 5 8 10 7 8 7 6 6 7 8 8 9 9 9 9 10
2 2 2 2 3 3 4 4 4 6 6 7 7 7 5 3 2 1 1 3 5 4 4 3 3 5 4 5 9 6 6 9 9 7 6 6 6 6 7 7 8 8 8
4 3 2 2 2 2 2 2 2 3 4 5 5 6 4 2 2 1 1 0 2 4 4 4 4 5 6 7 9 4 7 13 10 8 6 5 4 4 5 5 6 7 7
4 4 3 3 3 3 3 3 3 3 4 4 4 4 3 2 0 1 1 1 1 1 3 3 3 4 6 7 5 4 6 6 5 9 8 5 4 2 3 4 5 6 6
4 4 5 5 4 4 4 4 4 4 4 5 5 5 5 4 3 1 1 1 2 1 2 3 3 3 5 7 7 6 6 7 6 11 10 8 5 3 1 2 3 4 4
5 5 5 6 6 6 5 5 5 5 5 5 6 6 6 6 4 1 0 1 1 3 2 2 3 3 3 6 7 6 5 4 8 9 11 9 7 6 4 2 1 2 3
5 6 6 7 7 7 6 6 6 5 5 5 5 6 6 6 5 4 2 2 2 2 3 2 3 2 3 3 6 5 4 3 4 7 7 8 9 8 7 5 3 2 3
4 5 5 6 7 7 7 7 7 7 6 6 6 6 7 8 10 8 5 4 3 3 3 3 4 3 3 3 5 5 5 4 4 4 4 5 5 4 5 7 7 6 5
4 3 4 5 6 6 9 11 7 6 7 7 7 8 9 11 13 15 14 11 8 6 5 4 4 5 7 6 4 4 5 4 4 5 6 5 6 5 6 5 9 10 9
4 3 3 4 5 5 10 12 10 4 4 5 7 7 7 8 12 9 13 15 13 14 13 7 6 7 7 7 7 7 6 7 5 4 5 5 5 6 5 9 17 14 12
5 5 5 5 5 7 11 11 9 5 4 5 5 5 6 6 8 9 7 7 8 8 9 9 7 6 6 6 8 10 8 6 4 3 5 4 4 4 3 5 17 16 13
4 4 5 5 5 6 11 11 9 3 4 6 5 4 3 2 4 8 5 5 5 4 3 4 4 3 2 3 4 5 6 5 4 3 4 4 4 4 4 4 9 15 13
3 2 3 4 5 5 10 12 10 3 3 4 3 1 2 3 4 4 3 3 4 3 3 3 3 3 3 4 5 5 6 5 4 4 5 4 3 4 3 3 5 6 7
Wind_Direction
162 158 171 167 185 167 188 239 217 53 54 51 73 92 99 97 91 79 71 80 82 83 88 89 86 83 79 76 76 80 84 92 108 116 112 100 88 79 68 57 50 38 29
163 161 165 168 189 151 175 199 115 101 74 59 57 66 97 109 107 107 96 80 79 81 82 85 84 81 78 75 72 71 73 77 84 99 111 109 98 88 77 72 62 48 37
176 167 164 170 178 153 173 164 127 105 102 106 85 65 55 86 130 129 123 112 86 75 80 82 81 79 76 72 69 68 67 69 71 76 86 95 99 95 88 86 74 57 43
193 172 160 168 176 164 152 122 122 120 125 135 120 110 100 47 100 137 142 136 124 98 80 83 81 77 73 68 63 65 67 69 68 68 66 69 74 85 95 92 79 62 49
194 172 166 168 172 152 138 146 148 153 144 119 97 75 91 90 43 108 120 119 126 125 115 97 90 82 74 66 60 60 63 67 68 66 61 57 55 65 94 101 82 62 53
198 170 159 186 165 143 138 142 138 134 124 134 144 109 72 106 76 42 72 108 115 121 141 140 118 91 80 69 61 56 56 63 68 67 61 54 48 51 65 87 86 66 58
216 174 162 186 159 146 148 148 127 136 131 151 113 110 181 322 103 151 116 103 102 126 149 136 137 133 101 73 60 57 52 60 64 63 58 52 47 42 42 46 69 77 70
209 199 165 149 131 136 142 138 123 141 174 176 140 141 174 354 303 158 98 144 155 172 155 146 137 129 121 100 67 60 52 52 56 55 52 48 44 40 37 38 49 84 77
210 192 184 156 142 141 148 147 141 154 183 248 189 158 169 192 188 178 196 199 133 134 205 111 147 128 112 106 88 55 57 50 52 51 48 44 42 41 43 46 47 64 76
207 197 189 170 164 159 163 173 166 165 166 220 255 221 187 165 163 171 212 197 167 179 151 94 67 106 112 107 99 81 68 59 56 53 49 45 42 43 47 48 48 55 64
202 195 194 187 187 180 182 187 182 180 183 196 233 248 237 191 194 143 179 202 179 181 169 173 153 113 117 124 116 97 82 70 63 58 53 49 45 44 46 47 49 51 53
198 205 203 201 199 195 198 199 195 191 192 200 217 243 224 193 217 167 163 181 185 198 175 157 156 137 128 124 125 122 104 87 78 70 62 55 50 46 44 44 46 47 45
191 216 210 208 211 210 208 203 202 201 199 201 209 232 237 208 209 205 157 174 181 181 158 161 175 155 155 134 140 143 130 116 100 86 73 64 57 51 46 43 43 44 45
182 201 213 216 219 216 212 206 204 205 198 199 208 216 241 244 229 212 156 151 145 175 171 186 176 167 170 151 162 161 147 144 129 108 88 73 63 55 49 44 41 40 43
166 165 188 205 204 207 209 202 202 201 193 192 199 207 222 246 267 260 149 142 149 172 215 216 160 176 159 132 164 173 157 162 148 134 116 95 76 62 52 44 38 34 34
134 142 178 175 152 143 173 183 192 195 185 182 182 187 197 215 264 293 320 87 147 165 198 213 192 170 159 154 182 192 153 162 158 153 143 125 98 73 56 45 34 27 27
139 163 162 162 148 144 150 158 173 175 179 170 172 167 162 139 180 299 335 339 306 163 200 227 210 173 153 155 153 152 155 166 168 169 165 155 135 100 64 45 34 27 28
163 179 161 160 155 155 156 159 169 171 173 166 158 147 139 124 100 38 0 319 294 277 220 222 213 187 169 165 161 183 180 184 165 180 179 177 174 168 134 60 36 30 35
177 182 168 169 167 164 163 160 154 154 154 155 154 150 147 138 127 132 260 285 294 296 277 226 216 203 187 171 162 190 195 177 167 175 183 187 189 191 190 175 76 51 62
189 192 183 172 168 168 170 170 168 168 165 166 168 169 171 170 167 181 209 237 256 279 283 257 225 209 215 183 164 177 195 192 170 172 185 181 191 196 200 198 184 146 117
210 201 182 175 169 171 180 178 179 182 182 187 193 194 196 198 200 202 209 215 224 239 260 253 235 206 207 196 191 180 185 185 202 177 164 175 174 189 200 209 198 178 155
223 214 188 177 173 183 176 176 183 191 194 199 204 207 209 211 220 222 227 229 224 229 237 239 233 218 211 207 201 189 177 174 210 198 170 189 177 195 199 196 191 180 170
214 219 207 189 184 173 172 179 193 208 223 217 213 212 216 214 212 216 226 233 239 242 239 237 242 233 218 203 199 203 198 195 204 191 164 196 185 198 194 188 178 180 177
214 210 209 203 194 178 179 179 184 214 253 256 240 224 215 217 203 201 209 216 222 229 230 225 230 234 226 209 203 205 202 203 216 180 155 184 182 188 151 152 175 179 180
244 215 210 209 203 181 182 180 174 203 243 259 258 246 230 216 194 191 196 218 229 235 218 201 202 188 187 209 192 174 180 178 192 198 186 180 174 167 153 164 188 186 183
278 249 222 207 201 188 185 183 183 204 238 262 274 272 112 106 101 155 194 213 221 220 179 168 184 187 202 207 188 176 177 184 185 188 187 181 176 145 178 176 171 183 188